DW8102 Weather Reports


time (UTC)temp
C
wind
direction
speed
KPH
gust
KPH
rain 1hr
cm
rain 24hr
cm
rain mn
cm
humidity
%
barometer
mb
20260507103032 12 360 0.0 1.6 0.00 0.00 0.00 42 1015.9
20260507101528 12 335 0.0 0.0 0.00 0.00 0.00 49 1015.7
20260507094527 11 322 0.0 1.6 0.00 0.00 0.00 50 1015.6
20260507093033 11 34 0.0 1.6 0.00 0.00 0.00 54 1015.6
20260507091527 11 346 0.0 0.0 0.00 0.00 0.00 51 1015.6
20260507084524 10 343 0.0 0.0 0.00 0.00 0.00 52 1015.7
20260507083028 10 43 0.0 0.0 0.00 0.00 0.00 53 1015.6
20260507081533 10 11 0.0 0.0 0.00 0.00 0.00 54 1015.5
20260507074522 10 340 0.0 1.6 0.00 0.00 0.00 51 1015.6
20260507073021 11 336 0.0 0.0 0.00 0.00 0.00 47 1015.5
20260507071523 10 195 0.0 1.6 0.00 0.00 0.00 39 1015.5
20260507064519 9 198 0.0 0.0 0.00 0.00 0.00 44 1015.4
20260507063018 10 127 0.0 0.0 0.00 0.00 0.00 47 1015.4
20260507061516 8 215 0.0 0.0 0.00 0.00 0.00 52 1015.3
20260507054515 8 198 0.0 0.0 0.00 0.00 0.00 65 1015.2
20260507053015 6 190 0.0 0.0 0.00 0.00 0.00 72 1015.2
20260507051515 4 219 0.0 0.0 0.00 0.00 0.00 80 1015.2
20260507044515 3 124 0.0 0.0 0.00 0.00 0.00 85 1014.9
20260507043013 3 119 0.0 0.0 0.00 0.00 0.00 87 1014.8
20260507041531 3 124 0.0 0.0 0.00 0.00 0.00 89 1014.7
20260507034513 1 110 0.0 0.0 0.00 0.00 0.00 95 1014.5
20260507033012 0 91 0.0 0.0 0.00 0.00 0.00 94 1014.4
20260507031607 0 90 0.0 0.0 0.00 0.00 0.00 93 1014.4
20260507024504 0 91 0.0 0.0 0.00 0.00 0.00 92 1014.5
20260507023001 0 90 0.0 0.0 0.00 0.00 0.00 92 1014.4
20260507021500 0 91 0.0 0.0 0.00 0.00 0.00 92 1014.4
20260507020200 0 90 0.0 0.0 0.00 0.00 0.00 91 1014.5
20260507014608 0 90 0.0 0.0 0.00 0.00 0.00 92 1014.5
20260507013113 0 90 0.0 0.0 0.00 0.00 0.00 90 1014.4
20260507011555 0 90 0.0 0.0 0.00 0.00 0.00 89 1014.4
20260507010154 0 90 0.0 0.0 0.00 0.00 0.00 88 1014.4
20260507004553 1 91 0.0 0.0 0.00 0.00 0.00 86 1014.3
20260507003052 1 91 0.0 0.0 0.00 0.00 0.00 85 1014.3
20260507001608 1 90 0.0 0.0 0.00 0.00 0.00 85 1014.2
20260507000148 1 167 0.0 0.0 0.00 0.00 0.00 84 1014.0
20260506234546 1 167 0.0 0.0 0.00 0.00 0.00 81 1014.0
20260506233047 2 196 0.0 0.0 0.00 0.00 0.00 81 1014.0
20260506231544 2 198 0.0 0.0 0.00 0.00 0.00 80 1014.1
20260506230136 3 198 0.0 0.0 0.00 0.00 0.00 76 1013.9
20260506224534 3 198 0.0 0.0 0.00 0.00 0.00 75 1013.9
20260506223031 3 188 0.0 0.0 0.00 0.00 0.00 73 1013.7
20260506221529 4 153 0.0 0.0 0.00 0.00 0.00 72 1013.7
20260506220128 4 163 0.0 1.6 0.00 0.00 0.00 71 1013.6
20260506214524 5 139 0.0 1.6 0.00 0.00 0.00 70 1013.5
20260506213022 5 142 0.0 0.0 0.00 0.00 0.00 69 1013.3
20260506211520 5 140 0.0 0.0 0.00 0.00 0.00 67 1013.3
20260506210138 5 143 0.0 0.0 0.00 0.00 0.00 63 1013.3
20260506204518 5 143 0.0 0.0 0.00 0.00 0.00 62 1013.2
20260506203018 6 143 0.0 0.0 0.00 0.00 0.00 58 1013.2
20260506201513 6 141 0.0 0.0 0.00 0.00 0.00 53 1013.2
20260506200151 6 149 0.0 1.6 0.00 0.00 0.00 52 1013.1
20260506194511 7 172 0.0 3.2 0.00 0.00 0.00 49 1013.2
20260506193006 7 136 0.0 0.0 0.00 0.00 0.00 46 1013.1
20260506191503 7 136 0.0 1.6 0.00 0.00 0.00 44 1013.1
20260506190100 8 190 0.0 1.6 0.00 0.00 0.00 45 1013.1
20260506184557 8 190 0.0 4.8 0.00 0.00 0.00 41 1013.0
20260506183054 10 141 0.0 9.7 0.00 0.00 0.00 40 1012.8
20260506181551 10 154 0.0 4.8 0.00 0.00 0.00 40 1012.7
20260506180052 11 155 0.0 9.7 0.00 0.00 0.00 37 1012.5
20260506174546 11 177 0.0 6.4 0.00 0.00 0.00 38 1012.3
20260506173043 11 130 0.0 6.4 0.00 0.00 0.00 38 1012.3
20260506171550 12 134 0.0 3.2 0.00 0.00 0.00 39 1012.1
20260506170041 13 125 0.0 4.8 0.00 0.00 0.00 37 1012.2
20260506164538 13 181 0.0 4.8 0.00 0.00 0.00 36 1012.2
20260506163045 13 128 0.0 4.8 0.00 0.00 0.00 36 1012.1
20260506161548 14 135 0.0 0.0 0.00 0.00 0.00 32 1012.1
20260506160034 14 104 0.0 1.6 0.00 0.00 0.00 30 1012.1
20260506154534 13 193 0.0 3.2 0.00 0.00 0.00 32 1012.2
20260506153032 13 342 0.0 1.6 0.00 0.00 0.00 32 1012.2
20260506151531 13 74 0.0 6.4 0.00 0.00 0.00 31 1012.3
20260506150033 13 336 0.0 0.0 0.00 0.00 0.00 35 1012.4
20260506144527 13 66 0.0 1.6 0.00 0.00 0.00 34 1012.5
20260506143023 13 352 0.0 11.3 0.00 0.00 0.00 35 1012.6
20260506141521 12 334 0.0 1.6 0.00 0.00 0.00 37 1012.6
20260506140021 12 347 0.0 0.0 0.00 0.00 0.00 35 1012.7
20260506134546 11 360 0.0 0.0 0.00 0.00 0.00 35 1012.7
20260506133017 12 357 0.0 1.6 0.00 0.00 0.00 36 1012.8
20260506131515 13 338 0.0 1.6 0.00 0.00 0.00 36 1012.9
20260506130015 12 50 0.0 1.6 0.00 0.00 0.00 35 1013.0
20260506124516 12 340 0.0 3.2 0.00 0.00 0.00 34 1013.0
20260506123010 12 37 0.0 3.2 0.00 0.00 0.00 33 1013.1
20260506121510 12 338 0.0 8.0 0.00 0.00 0.00 33 1013.2
20260506120011 12 68 0.0 1.6 0.00 0.00 0.00 34 1013.3
20260506114511 11 15 0.0 6.4 0.00 0.00 0.00 34 1013.3
20260506113007 12 26 0.0 1.6 0.00 0.00 0.00 35 1013.3
20260506111506 11 339 0.0 6.4 0.00 0.00 0.00 34 1013.4
20260506110011 12 336 0.0 0.0 0.00 0.00 0.00 36 1013.6
20260506104502 11 347 0.0 0.0 0.00 0.00 0.00 34 1013.7